sat.trackr.live / text

‹ back to catalog

STARLINK-37131

NORAD 68605 · 2026-073D

PAYLOAD ACTIVE UNKNOWN

§ Identity

Operator
Country
US
Launch date
2026-04-07
Launch site
AFWTR
Launch vehicle
Mass (kg)
RCS (m²)

Purposes: comms

External: N2YO · Heavens-Above · Gunter

§ Orbital elements

Epoch: 2026-05-25T04:00:03.998880Z

Period
92.95 min
Inclination
97.2852°
Eccentricity
0.0002199
Mean motion
15.49208282 rev/d
Perigee alt
417.5 km
Apogee alt
420.5 km
Semi-major
6,797.2 km
B*
-2.4310e-6
RAAN
344.5942°
Arg perigee
90.7993°
Mean anomaly
65.6749°
Rev number
572

§ Raw data

STARLINK-371311 68605U 26073D   26145.16671295 -.00000223  00000+0 -24310-5 0  99912 68605  97.2852 344.5942 0002199  90.7993  65.6749 15.49208282  5721

JSON: /api/v1/satellites/68605 · /tle

For live sub-satellite position, see the globe view (requires WebGL).

§ Visibility from observer

Set your observer location to see the next 7 days of passes ≥ 10°. The values pass through the URL so the page stays shareable.

No JS? Fill the form by hand. The geolocation button needs JavaScript.